Weather History for KAUG - May, 2013

Change the Weather History Date:

Tuesday, May 28, 2013

  Actual Average Record
Temperature  
Mean Temperature 57 °F 58 °F  
Max Temperature 72 °F 69 °F 83 °F (2015)
Min Temperature 43 °F 48 °F 42 °F (1997)
Degree Days  
Heating Degree Days 8 7  
Month to date heating degree days 302  
Since 1 July heating degree days 7306  
Cooling Degree Days 0 1  
Month to date cooling degree days 4  
Year to date cooling degree days 4  
Growing Degree Days 7 (Base 50)    
Moisture  
Dew Point 37 °F    
Average Humidity 52    
Maximum Humidity 86    
Minimum Humidity 24    
Precipitation  
Precipitation 0.00 in 0.12 in 0.49 in (2004)
Month to date precipitation 3.34  
Year to date precipitation 15.54  
Sea Level Pressure  
Sea Level Pressure 30.21 in    
Wind  
Wind Speed 2 mph (SSW)    
Max Wind Speed 10 mph    
Max Gust Speed 20 mph    
Visibility 10 miles    
Events      
T = Trace of Precipitation, MM = Missing Value Source: NWS Daily Summary

Daily Weather History Graph

Daily Weather History Graph

Search for Another Location

Airport or City:

Trip Planner

Search our weather history database for the weather conditions in past years. The results will help you decide how hot, cold, wet, or windy it might be!

Date:

Astronomy

May. 28, 2013 Rise Set
Actual Time 5:00 AM EDT 8:13 PM EDT
Civil Twilight 4:25 AM EDT 8:48 PM EDT
Nautical Twilight 3:39 AM EDT 9:34 PM EDT
Astronomical Twilight 2:44 AM EDT 10:30 PM EDT
Moon 11:29 PM EDT (5/28) 8:48 AM EDT (5/28)
Length of Visible Light 16h 23m
Length of Day
15h 12m
Waning Gibbous, 83% of the Moon is Illuminated
May 28
Waning Gibbous
May 31
Last Quarter
Jun 8
New
Jun 16
First Quarter
Jun 23
Full

Hourly Weather History & Observations

Time (EDT) Temp. Windchill Dew Point Humidity Pressure Visibility Wind Dir Wind Speed Gust Speed Precip Events Conditions
12:53 AM 48.0 °F - 37.9 °F 68% 30.18 in 10.0 mi Calm Calm - N/A   Clear
1:53 AM 43.0 °F - 39.0 °F 86% 30.18 in 10.0 mi Calm Calm - N/A   Clear
2:53 AM 44.1 °F - 37.9 °F 79% 30.19 in 10.0 mi Calm Calm - N/A   Clear
3:53 AM 44.1 °F - 37.9 °F 79% 30.19 in 10.0 mi Calm Calm - N/A   Clear
4:53 AM 43.0 °F 41.3 °F 39.0 °F 86% 30.21 in 10.0 mi SSW 3.5 mph - N/A   Clear
5:53 AM 43.0 °F - 39.0 °F 86% 30.22 in 10.0 mi Calm Calm - N/A   Clear
6:53 AM 46.9 °F - 39.9 °F 77% 30.23 in 10.0 mi Calm Calm - N/A   Clear
7:53 AM 53.1 °F - 42.1 °F 66% 30.24 in 10.0 mi Calm Calm - N/A   Clear
8:53 AM 57.9 °F - 42.1 °F 56% 30.24 in 10.0 mi Calm Calm - N/A   Clear
9:53 AM 63.0 °F - 37.9 °F 40% 30.23 in 10.0 mi West 4.6 mph - N/A   Clear
10:53 AM 66.0 °F - 37.0 °F 34% 30.23 in 10.0 mi WSW 6.9 mph - N/A   Clear
11:53 AM 69.1 °F - 35.1 °F 29% 30.23 in 10.0 mi South 4.6 mph - N/A   Clear
12:53 PM 70.0 °F - 33.1 °F 26% 30.22 in 10.0 mi West 4.6 mph - N/A   Clear
1:53 PM 71.1 °F - 32.0 °F 24% 30.21 in 10.0 mi WSW 8.1 mph - N/A   Clear
2:53 PM 71.1 °F - 35.1 °F 27% 30.19 in 10.0 mi Variable 5.8 mph 19.6 mph N/A   Clear
3:53 PM 69.1 °F - 33.1 °F 26% 30.19 in 10.0 mi SSW 10.4 mph 17.3 mph N/A   Clear
4:53 PM 66.9 °F - 33.1 °F 28% 30.20 in 10.0 mi South 10.4 mph 19.6 mph N/A   Clear
5:53 PM 64.0 °F - 34.0 °F 33% 30.20 in 10.0 mi South 5.8 mph - N/A   Clear
6:53 PM 62.1 °F - 33.1 °F 34% 30.19 in 10.0 mi Variable 6.9 mph 16.1 mph N/A   Clear
7:53 PM 60.1 °F - 34.0 °F 38% 30.20 in 10.0 mi South 6.9 mph - N/A   Clear
8:53 PM 55.9 °F - 35.1 °F 45% 30.21 in 10.0 mi South 4.6 mph - N/A   Clear
9:53 PM 53.1 °F - 37.0 °F 55% 30.22 in 10.0 mi South 3.5 mph - N/A   Clear
10:53 PM 52.0 °F - 39.0 °F 61% 30.22 in 10.0 mi Calm Calm - N/A   Clear
11:53 PM 48.9 °F - 41.0 °F 74% 30.22 in 10.0 mi Calm Calm - N/A   Clear